Home   Weather   Paris   Past weeks
Flag for USA

Past Weather in Paris, Ohio, USA — Yesterday and Last 2 Weeks

Now
77 °F

Sunny.


Feels Like: 79 °F
Forecast: 90 / 71 °F
Wind: No wind

Location: Akron Fulton International Airport

Current Time: Jul 18, 2019 at 9:34:04 am

Latest Report: Jul 18, 2019 at 8:54 am


Visibility: 10 mi

Pressure: 29.96 "Hg

Humidity: 77%

Dew Point: 69 °F

Location of ParisLocation

Past Weather in Paris — Graph

°F

Paris Temperature Yesterday

Maximum temperature yesterday: 84 °F (at 5:17 pm)
Minimum temperature yesterday: 72 °F (at 1:40 am)
Average temperature yesterday: 78 °F

High & Low Weather Summary for the Past Weeks

 TemperatureHumidityPressure
High91 °F (Jul 10, 4:54 pm)91% (Jul 7, 4:10 am)30.14 "Hg (Jul 7, 4:10 am)
Low62 °F (Jul 9, 5:54 am)35% (Jul 14, 6:54 pm)29.79 "Hg (Jul 11, 12:54 pm)
Average78 °F71%29.97 "Hg
* Reported Jul 3 7:54 am — Jul 18 7:54 am, Paris. Weather by CustomWeather, © 2019

Note: Actual official high and low records may vary slightly from our data, if they occured in-between our weather recording intervals... More about our weather records

Advertising

Paris Weather History for the Previous 24 Hours

Scroll right to see more
 ConditionsComfort  
Time TempWeatherWind HumidityBarometerVisibility
7:54 am
Thu, Jul 18
72 °FFog.No wind91%29.94 "Hg4 mi
7:25 am72 °FFog.No wind91%29.97 "Hg2 mi
7:13 am72 °FFog.No wind91%29.96 "Hg1 mi
6:54 am72 °FFog.No wind91%29.92 "Hg1 mi
6:38 am71 °FFog.No wind90%29.96 "Hg1 mi
6:12 am72 °FFog.No wind91%29.95 "Hg1 mi
5:54 am72 °FFog.3 mph91%29.92 "Hg1 mi
5:26 am73 °FFog.No wind88%29.94 "Hg1 mi
5:16 am72 °FFog.No wind91%29.95 "Hg2 mi
5:00 am72 °FPassing clouds.No wind87%29.95 "Hg8 mi
4:17 am70 °FPassing clouds.3 mph90%29.95 "Hg10 mi
3:54 am72 °FLow clouds.No wind91%29.90 "Hg10 mi
3:25 am72 °FPassing clouds.No wind87%29.94 "Hg10 mi
2:54 am72 °FPassing clouds.3 mph91%29.92 "Hg10 mi
2:21 am73 °FPassing clouds.No wind88%29.95 "Hg10 mi
2:11 am72 °FPassing clouds.3 mph87%29.95 "Hg10 mi
1:54 am73 °FClear.No wind88%29.93 "Hg10 mi
12:54 am73 °FClear.No wind88%29.92 "Hg10 mi
11:54 pm
Wed, Jul 17
75 °FClear.No wind82%29.91 "Hg10 mi
10:54 pm77 °FClear.3 mph79%29.91 "Hg10 mi
9:54 pm78 °FClear.3 mph74%29.90 "Hg10 mi
8:54 pm80 °FSunny.6 mph71%29.89 "Hg10 mi
7:54 pm83 °FSunny.7 mph65%29.87 "Hg10 mi
6:54 pm84 °FSunny.13 mph61%29.85 "Hg10 mi
5:54 pm84 °FSunny.8 mph63%29.85 "Hg10 mi
5:17 pm84 °FBroken clouds.13 mph67%29.89 "Hg10 mi
4:54 pm83 °FPartly sunny.5 mph74%29.85 "Hg10 mi
4:27 pm83 °FPartly sunny.3 mph74%29.88 "Hg10 mi
4:17 pm81 °FScattered clouds.No wind79%29.89 "Hg10 mi
3:54 pm83 °FThundershowers. Mostly cloudy.8 mph70%29.85 "Hg10 mi
3:24 pm82 °FPartly sunny.8 mph74%29.89 "Hg10 mi
3:11 pm82 °FPartly sunny.13 mph77%29.89 "Hg10 mi
2:54 pm81 °FPartly sunny.12 mph79%29.88 "Hg10 mi
2:18 pm80 °FBroken clouds.8 mph85%29.91 "Hg10 mi
2:02 pm77 °FLight rain. Fog.10 mph88%29.92 "Hg2 mi
1:54 pm77 °FRain. Fog.6 mph88%29.89 "Hg3 mi
1:16 pm77 °FLight rain. Fog.8 mph88%29.92 "Hg5 mi
12:54 pm77 °FRain. Mostly cloudy.8 mph85%29.90 "Hg4 mi
12:21 pm76 °FLight rain. Fog.5 mph88%29.93 "Hg3 mi
11:54 am77 °FHeavy rain. Mostly cloudy.8 mph85%29.90 "Hg1 mi
10:54 am77 °FLight rain. Cloudy.6 mph82%29.91 "Hg5 mi
9:54 am77 °FMostly cloudy.8 mph82%29.92 "Hg10 mi
9:08 am77 °FPartly sunny.7 mph82%29.95 "Hg10 mi
Weather by CustomWeather, © 2019

See weather overview